Haines, AK

11:30 AM AKST on February 11, 2016 (GMT -0900)
Haines

Weather History for PAHN - July, 2013

Change the Weather History Date:

Sunday, July 14, 2013

  Actual Average Record
Temperature  
Mean Temperature 56 °F -  
Max Temperature 68 °F 62 °F 78 °F (1989)
Min Temperature 46 °F 50 °F 43 °F (1974)
Degree Days  
Heating Degree Days 9    
Growing Degree Days 6 (Base 50)    
Moisture  
Dew Point 48 °F    
Average Humidity 70    
Maximum Humidity 93    
Minimum Humidity 52    
Precipitation  
Precipitation 0.00 in - - ()
Sea Level Pressure  
Sea Level Pressure 30.25 in    
Wind  
Wind Speed 5 mph (SE)    
Max Wind Speed 10 mph    
Max Gust Speed -    
Visibility 10 miles    
Events      
Averages and records for this station are not official NWS values.
T = Trace of Precipitation, MM = Missing Value Source: NWS Daily Summary

Daily Weather History Graph

Daily Weather History Graph

Search for Another Location

Airport or City:

Trip Planner

Search our weather history database for the weather conditions in past years. The results will help you decide how hot, cold, wet, or windy it might be!

Date:

Astronomy

Jul. 14, 2013 Rise Set
Actual Time 4:11 AM AKDT 10:03 PM AKDT
Civil Twilight 2:58 AM AKDT 11:14 PM AKDT
Nautical Twilight Sun does not rise 12:35 AM AKDT
Astronomical Twilight Sun does not rise Sun does not rise
Moon 12:30 PM AKDT (7/14) 11:20 PM AKDT (7/14)
Length of Visible Light 20h 16m
Length of Day
17h 51m
Waxing Crescent, 36% of the Moon is Illuminated
Jul 14
Waxing Crescent
Jul 15
First Quarter
Jul 22
Full
Jul 29
Last Quarter
Aug 6
New

Hourly Weather History & Observations

Time (AKDT) Temp. Dew Point Humidity Pressure Visibility Wind Dir Wind Speed Gust Speed Precip Events Conditions
12:54 AM 54.0 °F 46.0 °F 75% 30.25 in 10.0 mi East 6.9 mph - N/A   Clear
1:54 AM 51.1 °F 46.0 °F 83% 30.26 in 10.0 mi East 4.6 mph - N/A   Clear
2:54 AM 50.0 °F 45.0 °F 83% 30.27 in 10.0 mi Calm Calm - N/A   Clear
3:54 AM 46.9 °F 45.0 °F 93% 30.28 in 10.0 mi Calm Calm - N/A   Clear
4:54 AM 46.0 °F 44.1 °F 93% 30.29 in 10.0 mi Calm Calm - N/A   Clear
5:54 AM 46.9 °F 45.0 °F 93% 30.30 in 10.0 mi Calm Calm - N/A   Clear
6:54 AM 48.9 °F 46.0 °F 90% 30.30 in 10.0 mi Calm Calm - N/A   Clear
7:54 AM 55.0 °F 46.0 °F 72% 30.30 in 10.0 mi WNW 4.6 mph - N/A   Clear
8:54 AM 55.9 °F 46.9 °F 72% 30.30 in 10.0 mi SW 3.5 mph - N/A   Clear
9:54 AM 57.9 °F 46.9 °F 67% 30.29 in 10.0 mi SSE 4.6 mph - N/A   Clear
10:54 AM 60.1 °F 48.9 °F 67% 30.28 in 10.0 mi SE 6.9 mph - N/A   Clear
11:54 AM 61.0 °F 48.9 °F 64% 30.27 in 10.0 mi SE 8.1 mph - N/A   Clear
12:54 PM 62.1 °F 51.1 °F 67% 30.26 in 10.0 mi SE 10.4 mph - N/A   Clear
1:54 PM 63.0 °F 51.1 °F 65% 30.25 in 10.0 mi SE 9.2 mph - N/A   Clear
2:54 PM 64.9 °F 50.0 °F 58% 30.25 in 10.0 mi SE 8.1 mph - N/A   Clear
3:54 PM 64.0 °F 48.9 °F 58% 30.23 in 10.0 mi SE 9.2 mph - N/A   Clear
4:54 PM 66.0 °F 51.1 °F 59% 30.22 in 10.0 mi ESE 8.1 mph - N/A   Clear
5:54 PM 66.9 °F 48.9 °F 52% 30.20 in 10.0 mi SE 6.9 mph - N/A   Clear
6:54 PM 66.9 °F 50.0 °F 54% 30.19 in 10.0 mi SE 6.9 mph - N/A   Clear
7:54 PM 66.9 °F 48.9 °F 52% 30.19 in 10.0 mi East 6.9 mph - N/A   Clear
8:54 PM 63.0 °F 50.0 °F 63% 30.20 in 10.0 mi East 5.8 mph - N/A   Clear
9:54 PM 60.1 °F 50.0 °F 69% 30.22 in 10.0 mi East 4.6 mph - N/A   Clear
10:54 PM 59.0 °F 48.0 °F 67% 30.23 in 10.0 mi Variable 6.9 mph - N/A   Clear
11:54 PM 55.9 °F 48.0 °F 75% 30.24 in 10.0 mi ESE 8.1 mph - N/A   Clear